Lid_Strength_Index
3 3 2 2 2 1 2 2 2 1 1 2 2 2 2 2 2 1 0 0 0 0 1 1 0 1 2 4 4 5 5 3 2 3 2 2 2 2 3 2 2 2 1
4 3 3 2 2 2 2 2 2 1 1 1 2 2 2 1 1 0 0 0 0 0 1 1 1 1 1 2 3 5 4 2 2 3 4 5 4 2 2 1 1 1 1
5 4 4 3 2 2 2 2 1 1 1 1 1 1 1 2 2 1 1 1 0 0 0 1 0 1 1 1 3 3 3 3 2 2 3 6 7 5 2 1 1 1 1
4 4 4 3 3 2 2 2 1 1 1 1 1 2 2 3 2 2 2 1 0 0 0 0 0 1 1 2 1 1 2 2 3 2 1 2 3 5 6 3 2 1 1
4 4 4 3 2 2 2 2 1 1 1 1 1 2 2 2 1 2 2 1 0 0 0 0 1 1 1 1 1 1 1 2 2 3 3 3 3 2 5 7 4 3 2
4 4 3 3 3 2 2 2 2 2 1 1 1 1 2 2 3 2 2 2 2 1 1 1 1 1 1 1 1 1 1 2 2 2 2 3 4 4 4 5 4 6 4
4 4 4 4 3 3 2 2 2 2 1 1 1 1 1 2 2 2 2 2 2 3 1 1 1 1 1 1 1 1 2 2 1 1 2 2 3 3 3 4 5 5 4
4 4 4 3 3 3 2 2 2 2 2 1 1 1 1 1 2 2 2 2 2 1 1 1 1 1 1 1 1 2 1 2 1 1 2 2 2 3 2 3 4 7 6
4 4 4 3 3 3 3 2 2 2 2 1 1 2 1 1 1 1 1 1 1 1 1 1 1 1 1 1 1 2 2 2 1 2 3 4 6 6 6 4 5 6 7
4 4 4 3 3 2 2 2 2 2 2 1 1 1 1 1 1 1 1 1 1 1 1 1 1 1 1 1 2 2 2 2 1 3 4 3 4 4 4 4 5 5 6
5 4 4 3 3 2 2 2 2 2 2 1 1 1 1 1 1 1 1 1 1 1 1 1 1 1 1 1 2 2 1 3 3 6 4 3 3 4 3 4 4 4 5
5 4 4 3 3 3 2 2 2 2 2 1 1 1 1 1 1 1 1 1 1 1 1 1 1 1 1 1 2 1 1 2 6 6 4 3 2 3 4 5 6 6 5
5 5 4 3 3 3 3 2 2 2 2 2 1 2 2 1 1 1 1 1 1 1 1 1 1 1 1 2 2 1 3 3 6 5 3 3 4 5 5 6 6 7 6
5 5 5 4 3 3 3 2 2 2 2 2 2 2 2 1 1 1 1 1 1 1 1 1 1 1 1 2 2 3 5 6 6 5 4 4 4 5 7 7 8 8 8
6 5 5 4 3 3 3 2 2 2 2 2 2 2 1 1 1 1 1 1 1 1 1 1 1 1 1 1 2 4 7 8 9 7 5 4 3 3 6 8 9 8 8
6 5 5 4 4 3 3 3 2 2 2 2 2 2 2 1 1 1 1 1 1 1 1 1 1 1 1 5 5 6 8 10 10 7 7 5 3 2 2 2 4 6 7
6 5 5 4 4 4 3 3 2 2 2 2 2 2 2 2 2 1 1 1 2 2 2 2 2 2 3 7 7 7 8 11 10 8 9 8 6 6 6 3 2 2 3
5 5 4 4 3 3 3 3 3 2 2 2 2 2 2 2 2 2 2 2 2 2 2 2 2 3 4 8 9 8 10 11 10 8 7 8 8 8 7 7 7 6 7
4 6 5 4 3 3 3 2 3 2 3 3 2 2 2 2 2 2 2 2 2 2 2 2 3 3 6 10 10 10 11 10 9 7 7 6 7 6 5 7 7 8 8
5 7 7 3 4 4 3 3 3 3 3 3 2 2 2 2 2 2 2 1 2 2 1 2 2 5 5 11 11 10 10 9 8 7 5 5 6 5 6 6 8 8 7
5 6 6 5 6 5 5 3 3 4 2 1 2 2 2 2 2 2 1 2 2 2 2 2 3 4 6 9 12 10 8 8 7 5 6 7 7 7 7 8 10 9 6
6 5 5 7 6 7 7 6 7 6 4 2 2 2 2 2 1 2 2 2 2 2 2 3 4 4 5 10 12 10 9 8 7 6 7 8 8 9 8 8 8 8 7
5 5 5 6 7 7 8 8 7 7 7 3 2 2 2 2 1 2 2 2 2 2 3 3 4 5 5 7 12 11 11 10 8 6 7 8 10 10 9 8 8 8 8
6 5 6 6 7 7 7 7 7 7 7 4 2 2 2 2 2 2 2 2 2 3 3 3 3 4 4 6 8 7 9 10 9 6 7 8 9 8 8 9 9 8 9
7 6 7 7 7 7 7 7 7 7 7 6 2 2 2 2 2 2 4 2 1 2 2 2 2 4 4 5 9 8 7 8 10 11 10 10 11 10 10 9 8 10 9
7 7 7 8 8 7 7 7 7 7 6 5 3 3 2 2 2 5 7 15 16 15 11 10 4 3 9 13 13 14 14 14 14 12 12 11 10 10 10 9 10 9 9